Flag for Poland Weather past 2 weeks in Jastrzębie Zdrój, Poland

Now
58 °F

Passing clouds.


Feels Like: 58 °F
Forecast: 56 / 67 °F
Wind: 6 mph from Southwest

Location: Ostrava / Mosnov

Current Time: Jul 28, 2015 at 6:25:51 AM

Latest Report: Jul 28, 2015 at 5:00 AM


Visibility: 16 mi

Pressure: 29.78 "Hg

Humidity: 89%

Dew point: 55 °F

Location of Jastrzębie ZdrójLocation

Historic Weather in Jastrzębie Zdrój — Graph

°F

Jastrzębie Zdrój temperature yesterday

Maximum temperature yesterday: 70 °F (at 1:00 PM)
Minimum temperature yesterday: 51 °F (at 4:00 AM)
Average temperature yesterday: 61 °F

Past Weeks' High & Low Weather Summary

 TemperatureHumidityPressure
High95 °F (Jul 22, 4:00 PM)99% (Jul 25, 3:00 AM)30.16 "Hg (Jul 25, 3:00 AM)
Low51 °F (Jul 27, 4:00 AM)24% (Jul 17, 3:00 PM)29.65 "Hg (Jul 25, 1:00 PM)
Average72 °F63%29.93 "Hg
* Reported Jul 13 4:00 AM — Jul 28 4:00 AM, Jastrzębie Zdrój, Weather by CustomWeather, © 2015

Note: Actual official high and low records may vary slightly from our data, if they occured in-between our weather recording intervals... More about our weather records

Advertising

Jastrzębie Zdrój weather history for previous 24 hours

 ConditionsComfort  
Time TempWeatherWind HumidityBarometerVisibility
4:00 AM
Tue, Jul 28
58 °FPassing clouds.6 mph92%29.78 "Hg16 mi
3:00 AM55 °FPassing clouds.6 mph94%29.79 "Hg16 mi
2:00 AM57 °FPassing clouds.5 mph89%29.78 "Hg16 mi
1:00 AM57 °FPassing clouds.5 mph90%29.78 "Hg16 mi
12:00 AM58 °FPassing clouds.6 mph92%29.78 "Hg16 mi
10:00 PM
Mon, Jul 27
62 °FOvercast.5 mph82%29.73 "Hg16 mi
9:00 PM62 °FPassing clouds.7 mph84%29.75 "Hg16 mi
8:00 PM63 °FPartly sunny.6 mph82%29.72 "Hg9 mi
7:00 PM62 °FPartly sunny.6 mph85%29.70 "Hg16 mi
6:00 PM63 °FSprinkles. Overcast.6 mph74%29.71 "Hg9 mi
5:00 PM68 °FOvercast.9 mph57%29.69 "Hg19 mi
4:00 PM68 °FOvercast.8 mph61%29.69 "Hg19 mi
3:00 PM69 °FOvercast.8 mph60%29.69 "Hg19 mi
2:00 PM70 °FOvercast.8 mph57%29.70 "Hg22 mi
1:00 PM70 °FPartly sunny.9 mph57%29.71 "Hg22 mi
12:00 PM68 °FPartly sunny.9 mph63%29.73 "Hg25 mi
11:00 AM66 °FPartly sunny.6 mph67%29.73 "Hg22 mi
10:00 AM60 °FOvercast.N/A82%29.77 "Hg16 mi
9:00 AM54 °FOvercast.N/A91%29.79 "Hg16 mi
8:00 AM53 °FLight rain. Overcast.2 mph91%29.79 "Hg6 mi
7:00 AM52 °FLight rain. Overcast.2 mph91%29.79 "Hg11 mi
Weather by CustomWeather, © 2015

See weather overviewHow to use our weather pages